Regional Weather Roundup
Issued by NWS

Home | Current Version | Previous Version | Graphics & Text | Print | Product List | Glossary Off
Versions: 1 2 3 4 5 6 7 8 9 10 11 12 13 14 15 16 17 18 19 20 21 22 23 24 25 26 27 28 29 30 31 32 33 34 35 36 37 38 39 40 41 42 43 44 45 46 47 48 49 50

000
ASUS43 KMPX 202310
RWRMN
WEATHER ROUNDUP FOR MINNESOTA
NATIONAL WEATHER SERVICE TWIN CITIES/CHANHASSEN MN
500 PM CST TUE FEB 20 2018


NOTE: "FAIR" INDICATES FEW OR NO CLOUDS BELOW 12,000 FEET WITH NO
SIGNIFICANT WEATHER AND/OR OBSTRUCTIONS TO VISIBILITY. N/A MEANS
CURRENT SKY AND/OR WEATHER CONDITIONS ARE NOT AVAILABLE.

MNZ060>063-068>070-210000-
   Twin Cities Metro

CITY           SKY/WX    TMP DP  RH WIND       PRES   REMARKS
TWIN CITIES    FAIR      19  10  68 NW15      30.11R WCI   5
ST PAUL        CLOUDY    20   9  62 W10       30.12R WCI   9
CRYSTAL        FAIR      19   8  62 W14G23    30.10R WCI   6
BLAINE         MOCLDY    21  10  63 W12G18    30.08R WCI   9
LAKEVILLE      FLURRIES  14  10  85 W10       30.12R WCI   1
EDEN PRAIRIE   CLOUDY    19   9  65 W10       30.11R WCI   7
SOUTH ST PAUL  CLOUDY    20  11  67 W8        30.11R WCI  11
LAKE ELMO      CLOUDY    21  12  68 W8        30.09R WCI  12
$$
MNZ001>005-007-008-013>017-022>024-027-028-210000-
   Northwest Minnesota

CITY           SKY/WX    TMP DP  RH WIND       PRES   REMARKS
BEMIDJI        FAIR       8   0  71 W12       30.07R WCI  -8
HALLOCK        FAIR       9   1  72 SW7       30.12R WCI  -3
ROSEAU         FAIR       9   1  72 W9        30.07R WCI  -5
WARROAD        CLOUDY    10   3  72 W8        30.05R WCI  -1
THIEF RVR FALL CLOUDY     8   2  76 W8        30.12R WCI  -4
CROOKSTON      FAIR      10   1  67 NW13      30.16R WCI  -5
FOSSTON        FAIR       9   0  66 W8        30.12R WCI  -4
DETROIT LAKES  FAIR       9   3  78 NW8       30.14R WCI  -4
MOORHEAD       FAIR      10   1  67 NW14      30.19R WCI  -5
PARK RAPIDS    FAIR       8   0  69 W16       30.07R WCI -10
MAHNOMEN       FLURRIES   6   0  78 NW9       30.13R WCI  -8
$$
MNZ006-009>011-018-025>026-210000-
   North Central Minnesota

CITY           SKY/WX    TMP DP  RH WIND       PRES   REMARKS
BAUDETTE       FAIR       9   1  70 W9        30.02R WCI  -4
FLAG ISLAND    FAIR       9   1  72 NW8       30.03R WCI  -4
INTL FALLS     CLOUDY    11   4  73 W8        30.00R WCI  -1
WASKISH        FAIR      10   3  72 W8        30.04R WCI  -1
BIG FORK       CLOUDY    12   7  79 W6        30.01R WCI   3
LONGVILLE      FAIR      12   3  67 NW5       30.05R WCI   4
GRAND RAPIDS   FLURRIES  12   4  70 W15       30.04R WCI  -4
CRANE LAKE     CLOUDY     9   3  78 CALM      30.01R
ORR            CLOUDY    10   3  72 W7        29.96R WCI   0
COOK             N/A     12   7  79 W7        29.98R WCI   2
WALKER         FLURRIES  11   1  65 W9G20     30.06R WCI  -2
$$
MNZ012-019>021-037-210000-
   Northeast Minnesota

CITY           SKY/WX    TMP DP  RH WIND       PRES   REMARKS
DULUTH         CLOUDY    16   7  67 NW14      29.96R WCI   2
ELY            CLOUDY     9   3  78 W10       29.94R WCI  -6
HIBBING        MIX PCPN  12   4  70 NW13      29.98R WCI  -3
EVELETH        FLURRIES N/A N/A N/A NW8       29.98S
DULUTH HARBOR  CLOUDY    19  12  73 W12       30.04R WCI   7
TWO HARBORS    MOCLDY    18   9  68 W10G22    29.96R WCI   6
GRAND MARAIS     N/A     17   7  64 W8        29.95R WCI   7
G MARAIS ARPRT FLURRIES   7   0  72 W8G20     29.85R WCI  -6
$$
MNZ029>031-032-039>041-046>048-054>057-064-210000-
   West Central Minnesota

CITY           SKY/WX    TMP DP  RH WIND       PRES   REMARKS
FERGUS FALLS   FAIR       9   1  72 NW15      30.18R WCI  -8
WHEATON        FAIR      10   1  67 W13       30.23R WCI  -5
MORRIS         FAIR      10   3  72 NW15G25   30.19R WCI  -6
ALEXANDRIA     FAIR       9   1  70 NW15      30.14R WCI  -8
ELBOW LAKE     CLOUDY    10   3  76 NW16      30.18R WCI  -8
WADENA         FLURRIES   9   0  66 NW15G22   30.11R WCI  -8
GLENWOOD       FAIR       9   3  78 W17       30.16R WCI -10
APPLETON       FAIR      12   3  67 NW12      30.23R WCI  -2
BENSON         CLOUDY    10   3  72 N17       30.23R WCI  -7
ORTONVILLE     MOCLDY    12   1  62 NW12G17   30.23R WCI  -2
MADISON        FAIR      16   5  62 NW13      30.25R WCI   2
WILLMAR        FAIR      10   3  72 NW15      30.21R WCI  -6
$$
MNZ033>034-036-042>043-049>051-058-059-210000-
   Central Minnesota

CITY           SKY/WX    TMP DP  RH WIND       PRES   REMARKS
ST CLOUD       FAIR      16   6  65 W16       30.11R WCI   1
SAUK CENTRE    FAIR      11   3  69 W16G23    30.14R WCI  -6
PAYNESVILLE    FAIR      12   5  73 NW15      30.15R WCI  -4
AITKIN         MOCLDY    16   3  57 W8        30.03R WCI   5
PINE RIVER     FAIR      14   3  62 NW7       30.09R WCI   4
BRAINERD       FAIR      18   4  54 W13       30.06R WCI   5
STAPLES        FAIR       9   1  72 W16       30.11R WCI  -9
LONG PRAIRIE   FAIR      12   3  67 W13G20    30.12R WCI  -3
LITTLE FALLS   FAIR      16   0  48 W15       30.11R WCI   1
LITCHFIELD     FAIR      14   7  73 W10G16    30.15R WCI   1
BUFFALO        FAIR      16   7  67 W10       30.13R WCI   3
MAPLE LAKE     FAIR      17   8  70 W10G20    30.13R WCI   4
HUTCHINSON     FAIR      15   8  73 W16       30.16R WCI  -1
$$
MNZ037-044-045-052-053-210000-
   East Central Minnesota

CITY           SKY/WX    TMP DP  RH WIND       PRES   REMARKS
PRINCETON      FAIR      19   9  63 W14       30.09R WCI   6
MORA           MOCLDY    19   9  63 W10       30.07R WCI   8
CAMBRIDGE      FAIR      19   9  63 W9G16     30.09R WCI   9
RUSH CITY      MOCLDY    20   8  61 W10       30.07R WCI   8
MOOSE LAKE     FAIR      19   9  63 NW7       30.01R WCI  10
HINCKLEY       FAIR      19   9  63 W10G17    30.06R WCI   8
CLOQUET        CLOUDY    18   7  62 W13       29.98R WCI   4
MCGREGOR       FAIR      18   7  62 W10       30.03R WCI   6
$$
MNZ071>073-080-081-089-090-097-098-210000-
   Southwest Minnesota

CITY           SKY/WX    TMP DP  RH WIND       PRES   REMARKS
MONTEVIDEO     FAIR      12   3  67 N14       30.22R WCI  -3
GRANITE FALLS  FAIR      14   7  74 W16G22    30.23R WCI  -2
CANBY          FAIR      14   4  65 NW15      30.25R WCI  -2
MARSHALL       FAIR      11   5  77 NW20      30.21R WCI  -7
REDWOOD FALLS  CLOUDY    12   5  73 NW17      30.19R WCI  -5
OLIVIA         FAIR      12   5  73 NW15G24   30.18R WCI  -4
PIPESTONE      FAIR      10   3  72 NW14      30.18R WCI  -5
WINDOM         FAIR      12  -2  52 CALM      30.17R
WORTHINGTON    FAIR      12   6  77 NW21      30.18R WCI  -7
JACKSON        FAIR      12   5  73 NW22      30.17R WCI  -7
TRACY          FAIR      12   6  77 NW16      30.19R WCI  -4
SLAYTON        FAIR      10   5  77 NW17      30.18R WCI  -7
$$
MNZ065>067-074>077-082>085-091>093-210000-
   South Central Minnesota

CITY           SKY/WX    TMP DP  RH WIND       PRES   REMARKS
MANKATO        FLURRIES  13   7  77 W21       30.16R WCI  -5
NEW ULM        FAIR      12   5  73 NW21G26   30.18R WCI  -6
ST JAMES       CLOUDY    12   9  85 W16G22    30.19R WCI  -4
FAIRMONT       FAIR      13   7  77 NW24      30.18R WCI  -7
GLENCOE        FAIR      15   8  72 W18       30.13R WCI  -1
FARIBAULT      CLOUDY    14   9  79 W9        30.14R WCI   2
OWATONNA       FLURRIES  14   9  79 CALM      30.12R
WASECA         FAIR      14  10  85 W12       30.16R WCI   0
ALBERT LEA     MOCLDY    14   9  79 NW8G16    30.13R WCI   3
$$
MNZ078>079-086>088-094>096-210000-
   Southeast Minnesota

CITY           SKY/WX    TMP DP  RH WIND       PRES   REMARKS
ROCHESTER      CLOUDY    16  12  84 NW22      30.07R WCI  -2
RED WING       FLURRIES  21  10  63 W9        30.09R WCI  11
STANTON        FLURRIES  18  11  76 W12       30.11R WCI   5
DODGE CENTER   FLURRIES  14   9  79 W9        30.08R WCI   2
WINONA         CLOUDY    23  18  80 NW12      30.08R WCI  12
AUSTIN         LGT SNOW  16  10  79 W13       30.10R WCI   2
PRESTON        CLOUDY    18  14  84 NW13      30.07R WCI   4
$$
ABBREVIATIONS USED IN REMARKS
   TC - TEMPERATURES IN CELSIUS
  WCI - WIND CHILL INDEX
   HX - HEAT INDEX
  VSB - VISIBILITY
$$



USA.gov is the U.S. government's official web portal to all federal, state and local government web resources and services.